Location: Lombard
(41.8800°N, 88.0080°W)
Time: 23:36:33
(UTC-05:00)

Tiros 1 - Pass Details

Date: 01 February 2023
Orbit: 628 x 662 km, 48.4° (Epoch: 20 March)

Event Time Altitude Azimuth Distance (km) Brightness Sun altitude
Rises 07:03:25 0° 295° (WNW) 2,947 - -1.1°
Exits shadow 07:03:45 - 295° (WNW) 2,819 9.7 -1.0°
Reaches altitude 10° 07:05:48 10° 290° (WNW) 2,041 9.1 -0.6°
Maximum altitude 07:10:19 47° 217° (SW) 854 7.8 0.1°
Drops below altitude 10° 07:14:52 10° 143° (SE) 2,053 10.9 0.9°
Sets 07:17:16 0° 138° (SE) 2,966 12.0 1.3°
